Location: Arboucave
(43.6130°N, 0.4343°W)
Time: 06:50:23
(UTC+00:00)

ATLAS 2AS CENTAUR R/B - Pass Details

Date: 17 November 2025
Orbit: 1047 x 1163 km, 63.7° (Epoch: 13 December)

Event Time Altitude Azimuth Distance (km) Brightness Sun altitude
Rises 18:15:56 0° 324° (NW) 3,853 6.0 -18.3°
Reaches altitude 10° 18:19:07 10° 337° (NNW) 2,883 5.1 -18.8°
Maximum altitude 18:24:40 26° 32° (NNE) 1,939 3.7 -19.8°
Enters shadow 18:25:35 25° 45° (NE) 1,968 3.6 -20.0°
